This is the latest recevied weather packets stored in our database for station/object N4TLC. If no packets are shown the sender has not sent any weather packets the latest 10 day(s).
| Time | Temp. | Humidity | Pressure | Rain* | Wind** | Luminosity | Snow |
|---|---|---|---|---|---|---|---|
| 1777654759 | 17.22° C | 44% | 1016.8 hPa | 0 mm | - | 139 W/m² | - |
| 1777654457 | 16.67° C | 47% | 1016.8 hPa | 0 mm | - | 269 W/m² | - |
| 1777654154 | 16.11° C | 46% | 1017 hPa | 0 mm | - | 367 W/m² | - |
| 1777653852 | 16.11° C | 47% | 1017.2 hPa | 0 mm | - | 277 W/m² | - |
| 1777653548 | 16.11° C | 45% | 1017.2 hPa | 0 mm | - | 876 W/m² | - |
| 1777653244 | 16.67° C | 47% | 1017.1 hPa | 0 mm | - | 936 W/m² | - |
| 1777652941 | 16.11° C | 45% | 1017.3 hPa | 0 mm | - | 481 W/m² | - |
| 1777652637 | 16.11° C | 47% | 1017.2 hPa | 0 mm | - | 452 W/m² | - |
| 1777652334 | 15.56° C | 46% | 1017.5 hPa | 0 mm | - | 603 W/m² | - |
| 1777652031 | 15.56° C | 48% | 1017.7 hPa | 0 mm | - | 452 W/m² | - |
| 1777651728 | 15.56° C | 44% | 1017.7 hPa | 0 mm | - | 502 W/m² | - |
| 1777651424 | 16.11° C | 44% | 1017.9 hPa | 0 mm | - | 411 W/m² | - |
| 1777651122 | 15.56° C | 45% | 1017.8 hPa | 0 mm | - | 720 W/m² | - |
| 1777650819 | 15.56° C | 44% | 1017.7 hPa | 0 mm | - | 416 W/m² | - |
| 1777650515 | 15.56° C | 46% | 1017.8 hPa | 0 mm | - | 345 W/m² | - |
| 1777650213 | 16.11° C | 45% | 1017.9 hPa | 0 mm | - | 299 W/m² | - |
| 1777649910 | 15.56° C | 46% | 1018 hPa | 0 mm | - | 345 W/m² | - |
| 1777649608 | 15.56° C | 45% | 1017.9 hPa | 0 mm | - | 978 W/m² | - |
| 1777649303 | 15.56° C | 45% | 1017.9 hPa | 0 mm | - | 669 W/m² | - |
| 1777649001 | 15° C | 47% | 1017.9 hPa | 0 mm | - | 314 W/m² | - |
| 1777648698 | 14.44° C | 48% | 1017.9 hPa | 0 mm | - | 348 W/m² | - |
| 1777648394 | 14.44° C | 50% | 1018 hPa | 0 mm | - | 274 W/m² | - |
| 1777648090 | 14.44° C | 50% | 1018.2 hPa | 0 mm | - | 290 W/m² | - |
| 1777647787 | 14.44° C | 51% | 1018 hPa | 0 mm | - | 335 W/m² | - |
| 1777647483 | 14.44° C | 50% | 1018.2 hPa | 0 mm | - | 260 W/m² | - |
* Rain latest hour (hover to see other rain measurements)
** Current wind speed in m/s (hover to see current wind gust speed)